EW4814 Weather Reports


time (UTC)temp
C
wind
direction
speed
KPH
gust
KPH
rain 1hr
cm
rain 24hr
cm
rain mn
cm
humidity
%
barometer
mb
20260505121554 18 192 6.4 16.1 0.00 0.00 0.00 67 1009.7
20260505115040 17 191 3.2 17.7 0.00 0.00 0.00 71 1010.5
20260505114600 17 232 1.6 8.0 0.00 0.00 0.00 73 1009.7
20260505113023 16 133 1.6 8.0 0.00 0.00 0.00 78 1009.6
20260505112526 15 117 1.6 4.8 0.00 0.00 0.00 79 1010.3
20260505101520 13 201 0.0 3.2 0.00 0.00 0.00 80 1009.4
20260505100059 14 179 0.0 3.2 0.00 0.00 0.00 78 1009.1
20260505094530 15 179 1.6 6.4 0.00 0.00 0.00 76 1008.9
20260505093004 15 157 4.8 11.3 0.00 0.00 0.00 75 1008.9
20260505091600 15 204 4.8 17.7 0.00 0.00 0.00 74 1008.7
20260505090036 15 191 4.8 12.9 0.00 0.00 0.00 74 1008.6
20260505085540 16 153 4.8 14.5 0.00 0.00 0.00 74 1009.4
20260505084514 16 162 4.8 14.5 0.00 0.00 0.00 73 1008.6
20260505083045 16 138 4.8 14.5 0.00 0.00 0.00 72 1008.7
20260505081629 16 196 3.2 14.5 0.00 0.00 0.00 71 1008.6
20260505080505 16 194 6.4 12.9 0.00 0.00 0.00 71 1009.5
20260505080145 16 188 4.8 12.9 0.00 0.00 0.00 71 1008.7
20260505074538 16 217 1.6 11.3 0.00 0.00 0.00 71 1008.8
20260505074525 16 193 4.8 12.9 0.00 0.00 0.00 71 1009.7
20260505071507 16 184 4.8 14.5 0.00 0.00 0.00 70 1008.7
20260505070524 16 174 4.8 9.7 0.00 0.00 0.00 70 1009.4
20260505070016 16 199 1.6 9.7 0.00 0.00 0.00 70 1008.7
20260505064517 15 187 6.4 14.5 0.00 0.00 0.00 70 1008.5
20260505064503 16 174 6.4 11.3 0.00 0.00 0.00 70 1009.2
20260505063117 15 209 6.4 14.5 0.00 0.00 0.00 71 1008.5
20260505062525 15 178 6.4 16.1 0.00 0.00 0.00 72 1009.3
20260505061533 15 160 6.4 12.9 0.00 0.00 0.00 72 1008.6
20260505061003 15 165 6.4 12.9 0.00 0.00 0.00 72 1009.4
20260505060017 15 182 4.8 11.3 0.00 0.00 0.00 74 1008.5
20260505060005 15 165 4.8 12.9 0.00 0.00 0.00 74 1009.3
20260505054609 15 146 1.6 6.4 0.00 0.00 0.00 72 1008.7
20260505053026 15 153 3.2 6.4 0.00 0.00 0.00 71 1008.8
20260505053004 15 147 3.2 8.0 0.00 0.00 0.00 71 1009.5
20260505051004 15 169 4.8 9.7 0.00 0.00 0.00 70 1009.6
20260505050505 15 158 4.8 16.1 0.00 0.00 0.00 70 1009.6
20260505041538 15 157 1.6 8.0 0.00 0.00 0.00 68 1008.7
20260505040012 15 170 3.2 8.0 0.00 0.00 0.00 66 1008.8
20260505034515 15 147 1.6 11.3 0.00 0.00 0.00 65 1008.8
20260505034504 16 147 3.2 11.3 0.00 0.00 0.00 65 1009.6
20260505034003 16 137 3.2 6.4 0.00 0.00 0.00 64 1009.7
20260505033015 16 140 1.6 6.4 0.00 0.00 0.00 63 1008.8
20260505032032 16 151 3.2 12.9 0.00 0.00 0.00 61 1009.6
20260505031516 16 144 3.2 12.9 0.00 0.00 0.00 60 1008.9
20260505024511 16 169 3.2 12.9 0.00 0.00 0.00 57 1009.1
20260505023003 17 148 3.2 8.0 0.00 0.00 0.00 55 1009.2
20260505021631 17 148 3.2 9.7 0.00 0.00 0.00 55 1009.2
20260505020154 17 157 1.6 8.0 0.00 0.00 0.00 54 1009.2
20260505014637 17 144 3.2 11.3 0.00 0.00 0.00 52 1009.2
20260505013015 17 149 1.6 8.0 0.00 0.00 0.00 52 1009.1
20260505011605 17 163 1.6 8.0 0.00 0.00 0.00 52 1008.9
20260505010525 18 159 1.6 4.8 0.00 0.00 0.00 51 1009.5
20260505010118 17 159 0.0 4.8 0.00 0.00 0.00 51 1008.7
20260505010006 18 158 1.6 4.8 0.00 0.00 0.00 50 1009.4
20260505004609 18 142 1.6 6.4 0.00 0.00 0.00 49 1008.5
20260505004504 18 152 1.6 6.4 0.00 0.00 0.00 48 1009.3
20260505004004 18 170 1.6 3.2 0.00 0.00 0.00 47 1009.2
20260505002010 20 167 4.8 12.9 0.00 0.00 0.00 45 1009.1
20260505001617 20 168 3.2 12.9 0.00 0.00 0.00 44 1008.4
20260505000053 20 167 4.8 12.9 0.00 0.00 0.00 43 1008.2
20260504234540 20 153 6.4 16.1 0.00 0.00 0.00 42 1008.2
20260504233103 21 188 8.0 12.9 0.00 0.00 0.00 41 1007.9
20260504230106 21 124 4.8 16.1 0.00 0.00 0.00 40 1007.8
20260504225503 21 197 9.7 29.0 0.00 0.00 0.00 41 1008.5
20260504224612 21 124 6.4 24.1 0.00 0.00 0.00 40 1007.9
20260504222504 22 165 8.0 14.5 0.00 0.00 0.00 40 1008.6
20260504221613 22 184 9.7 27.4 0.00 0.00 0.00 39 1007.9
20260504221008 22 233 8.0 20.9 0.00 0.00 0.00 40 1008.7
20260504220033 22 190 9.7 19.3 0.00 0.00 0.00 38 1007.9
20260504220020 22 203 8.0 22.5 0.00 0.00 0.00 39 1008.7
20260504214535 22 126 9.7 17.7 0.00 0.00 0.00 39 1008.0
20260504213004 22 193 4.8 25.7 0.00 0.00 0.00 38 1008.2
20260504212504 22 201 9.7 20.9 0.00 0.00 0.00 37 1009.0
20260504212006 22 187 9.7 22.5 0.00 0.00 0.00 40 1008.8
20260504211004 22 205 11.3 19.3 0.00 0.00 0.00 39 1008.9
20260504210505 22 204 9.7 24.1 0.00 0.00 0.00 37 1008.9
20260504210024 22 212 8.0 24.1 0.00 0.00 0.00 37 1009.0
20260504210006 22 205 14.5 24.1 0.00 0.00 0.00 38 1008.3
20260504204530 22 237 4.8 16.1 0.00 0.00 0.00 39 1008.3
20260504203051 22 200 8.0 20.9 0.00 0.00 0.00 38 1008.2
20260504201518 22 226 8.0 27.4 0.00 0.00 0.00 38 1008.3
20260504200506 22 149 8.0 25.7 0.00 0.00 0.00 37 1009.0
20260504200121 22 121 6.4 16.1 0.00 0.00 0.00 38 1008.3
20260504194558 22 155 6.4 20.9 0.00 0.00 0.00 39 1008.4
20260504194505 22 243 9.7 20.9 0.00 0.00 0.00 38 1009.2
20260504193503 22 193 11.3 24.1 0.00 0.00 0.00 38 1009.2
20260504193007 22 229 9.7 24.1 0.00 0.00 0.00 38 1008.5
20260504191540 22 244 6.4 14.5 0.00 0.00 0.00 39 1008.6
20260504191010 22 211 6.4 16.1 0.00 0.00 0.00 40 1009.6
20260504190105 22 272 8.0 22.5 0.00 0.00 0.00 39 1009.0
20260504184607 21 223 12.9 20.9 0.00 0.00 0.00 37 1009.2
20260504183050 21 188 14.5 30.6 0.00 0.00 0.00 38 1009.4
20260504181546 21 194 11.3 22.5 0.00 0.00 0.00 39 1009.6
20260504180107 21 151 6.4 17.7 0.00 0.00 0.00 40 1009.8
20260504175506 21 202 9.7 27.4 0.00 0.00 0.00 41 1010.5
20260504175004 21 188 11.3 27.4 0.00 0.00 0.00 41 1010.7
20260504173018 20 146 16.1 32.2 0.00 0.00 0.00 41 1010.1
20260504173005 21 166 11.3 27.4 0.00 0.00 0.00 41 1010.9
20260504171511 20 257 8.0 20.9 0.00 0.00 0.00 43 1010.3
20260504171506 20 237 11.3 37.0 0.00 0.00 0.00 43 1011.0
20260504171004 20 230 11.3 37.0 0.00 0.00 0.00 43 1011.2
20260504170142 20 213 9.7 29.0 0.00 0.00 0.00 42 1010.6
20260504160108 19 172 8.0 17.7 0.00 0.00 0.00 41 1011.5
20260504150507 18 189 12.9 24.1 0.00 0.00 0.00 49 1012.6
20260504150119 18 180 11.3 19.3 0.00 0.00 0.00 46 1011.9
20260504140527 16 234 6.4 19.3 0.00 0.00 0.00 58 1012.9
20260504130506 15 204 9.7 17.7 0.00 0.00 0.00 62 1013.3